Location: Castillon
(43.1358°N, 0.8654°E)
Time: 19:52:38
(UTC+00:00)

Cosmos 923 Rocket - Pass Details

Date: 24 January 2021
Orbit: 758 x 785 km, 74.0° (Epoch: 28 February)

Event Time Altitude Azimuth Distance (km) Brightness Sun altitude
Rises 17:28:05 0° 345° (NNW) 3,285 7.2 -5.8°
Reaches altitude 10° 17:30:38 10° 353° (N) 2,350 6.4 -6.2°
Maximum altitude 17:35:40 41° 63° (ENE) 1,131 4.4 -7.1°
Drops below altitude 10° 17:40:38 10° 133° (SE) 2,323 6.2 -8.0°
Sets 17:43:08 0° 141° (SE) 3,242 7.0 -8.4°
